Provo, UT

4:43 AM MDT on May 24, 2017 (GMT -0600)
Provo Municipal

Weather History for KPVU - November, 2011

Change the Weather History Date:

Friday, November 18, 2011

  Actual Average Record
Temperature  
Mean Temperature 44 °F -  
Max Temperature 55 °F 44 °F 64 °F (2007)
Min Temperature 33 °F 28 °F 12 °F (2014)
Degree Days  
Heating Degree Days 21    
Moisture  
Dew Point 28 °F    
Average Humidity 57    
Maximum Humidity 100    
Minimum Humidity 33    
Precipitation  
Precipitation 0.03 in - - ()
Sea Level Pressure  
Sea Level Pressure 29.70 in    
Wind  
Wind Speed 7 mph (North)    
Max Wind Speed 23 mph    
Max Gust Speed 30 mph    
Visibility 10 miles    
Events      
Averages and records for this station are not official NWS values.
T = Trace of Precipitation, MM = Missing Value Source: NWS Daily Summary

Daily Weather History Graph

Daily Weather History Graph

Search for Another Location

Airport or City:

Trip Planner

Search our weather history database for the weather conditions in past years. The results will help you decide how hot, cold, wet, or windy it might be!

Date:

Astronomy

Nov. 18, 2011 Rise Set
Actual Time 7:15 AM MST 5:07 PM MST
Civil Twilight 6:46 AM MST 5:37 PM MST
Nautical Twilight 6:13 AM MST 6:10 PM MST
Astronomical Twilight 5:41 AM MST 6:42 PM MST
Moon No Moon Rise 12:56 PM MST (11/18)
Length of Visible Light 10h 50m
Length of Day
9h 52m
Waning Gibbous, 48% of the Moon is Illuminated
Nov 18
Waning Gibbous
Nov 24
New
Dec 2
First Quarter
Dec 10
Full
Dec 17
Last Quarter

Hourly Weather History & Observations

Time (MST) Temp. Windchill Dew Point Humidity Pressure Visibility Wind Dir Wind Speed Gust Speed Precip Events Conditions
12:15 AM 46.4 °F 43.5 °F 28.4 °F 50% 29.78 in 10.0 mi North 5.8 mph - N/A   Overcast
12:35 AM 48.2 °F - 26.6 °F 43% 29.78 in 10.0 mi North 4.6 mph - N/A   Mostly Cloudy
1:35 AM 51.8 °F - 24.8 °F 35% 29.77 in 10.0 mi South 4.6 mph - N/A   Mostly Cloudy
1:55 AM 50.0 °F - 23.0 °F 35% 29.76 in 10.0 mi NE 4.6 mph - N/A   Partly Cloudy
2:15 AM 51.8 °F - 23.0 °F 33% 29.77 in 10.0 mi Calm Calm - N/A   Mostly Cloudy
2:35 AM 51.8 °F - 23.0 °F 33% 29.77 in 10.0 mi SE 3.5 mph - N/A   Mostly Cloudy
2:55 AM 48.2 °F - 24.8 °F 40% 29.77 in 10.0 mi NE 3.5 mph - N/A   Overcast
3:15 AM 48.2 °F - 24.8 °F 40% 29.77 in 10.0 mi NW 6.9 mph - N/A   Overcast
3:35 AM 46.4 °F 42.9 °F 26.6 °F 46% 29.77 in 10.0 mi NNE 6.9 mph - N/A   Overcast
3:55 AM 46.4 °F 42.9 °F 26.6 °F 46% 29.76 in 10.0 mi North 6.9 mph - N/A   Overcast
4:15 AM 46.4 °F 42.4 °F 26.6 °F 46% 29.76 in 10.0 mi North 8.1 mph - N/A   Overcast
4:35 AM 46.4 °F 41.9 °F 26.6 °F 46% 29.76 in 10.0 mi NNE 9.2 mph - N/A   Overcast
4:55 AM 44.6 °F 39.7 °F 26.6 °F 49% 29.76 in 10.0 mi North 9.2 mph - N/A   Overcast
5:15 AM 46.4 °F 42.4 °F 28.4 °F 50% 29.76 in 10.0 mi NNE 8.1 mph - N/A   Overcast
5:35 AM 44.6 °F 40.2 °F 28.4 °F 53% 29.75 in 10.0 mi North 8.1 mph - N/A   Overcast
5:55 AM 42.8 °F 40.1 °F 26.6 °F 53% 29.75 in 10.0 mi North 4.6 mph - N/A   Overcast
6:15 AM 42.8 °F 39.3 °F 24.8 °F 49% 29.73 in 10.0 mi North 5.8 mph - N/A   Overcast
6:35 AM 44.6 °F 40.2 °F 26.6 °F 49% 29.73 in 10.0 mi North 8.1 mph - N/A   Overcast
6:52 AM 42.8 °F 39.3 °F 28.4 °F 57% 29.73 in 15.0 mi NNE 5.8 mph - N/A   Mostly Cloudy
7:48 AM 44.6 °F 43.1 °F 26.6 °F 49% 29.71 in 15.0 mi Variable 3.5 mph - N/A   Mostly Cloudy
8:49 AM 44.6 °F 41.4 °F 26.6 °F 49% 29.71 in 15.0 mi NW 5.8 mph - N/A   Scattered Clouds
9:49 AM 50.0 °F - 26.6 °F 40% 29.69 in 15.0 mi NNW 6.9 mph - N/A   Mostly Cloudy
10:54 AM 51.8 °F - 26.6 °F 38% 29.67 in 15.0 mi Variable 4.6 mph - N/A   Mostly Cloudy
11:59 AM 51.8 °F - 28.4 °F 41% 29.60 in 15.0 mi South 11.5 mph 18.4 mph N/A   Mostly Cloudy
12:47 PM 51.8 °F - 28.4 °F 41% 29.57 in 15.0 mi South 10.4 mph - N/A   Mostly Cloudy
1:50 PM 53.6 °F - 30.2 °F 41% 30.51 in 15.0 mi SSW 16.1 mph - N/A   Mostly Cloudy
3:50 PM 55.4 °F - 28.4 °F 36% 29.46 in 10.0 mi South 18.4 mph 27.6 mph N/A   Mostly Cloudy
4:50 PM 39.2 °F 28.7 °F 28.4 °F 65% 29.47 in 15.0 mi NW 23.0 mph 29.9 mph N/A   Mostly Cloudy
5:50 PM 37.4 °F 26.9 °F 30.2 °F 75% 29.50 in 15.0 mi NW 20.7 mph 27.6 mph N/A   Mostly Cloudy
7:50 PM 37.4 °F 26.9 °F 30.2 °F 75% 29.55 in 15.0 mi WNW 20.7 mph - N/A   Mostly Cloudy
8:50 PM 37.4 °F 26.4 °F 30.2 °F 75% 29.57 in 15.0 mi WNW 23.0 mph 29.9 mph N/A   Overcast
9:15 PM 33.8 °F 23.2 °F 28.4 °F 81% 29.59 in 4.0 mi NNW 17.3 mph - N/A   Overcast
9:35 PM 33.8 °F 25.3 °F 30.2 °F 87% 29.61 in 3.0 mi NNW 11.5 mph - N/A   Overcast
9:55 PM 33.8 °F 24.8 °F 30.2 °F 87% 29.62 in 4.0 mi NW 12.7 mph - N/A   Overcast
10:15 PM 33.8 °F 26.4 °F 30.2 °F 87% 29.64 in 5.0 mi NNW 9.2 mph - N/A   Overcast
10:35 PM 33.8 °F 26.4 °F 30.2 °F 87% 29.65 in 2.5 mi NNW 9.2 mph - N/A   Overcast
10:55 PM 33.8 °F 29.6 °F 30.2 °F 87% 29.65 in 2.0 mi North 4.6 mph - 0.01 in   Overcast
11:15 PM 33.8 °F 30.8 °F 33.8 °F 100% 29.66 in 2.5 mi NNE 3.5 mph - 0.01 in   Overcast
11:35 PM 33.8 °F 30.8 °F 33.8 °F 100% 29.67 in 3.0 mi NE 3.5 mph - 0.02 in   Overcast
11:55 PM 33.8 °F 27.0 °F 33.8 °F 100% 29.66 in 3.0 mi East 8.1 mph - 0.02 in   Overcast